FW1175 Weather Reports


time (UTC)temp
C
wind
direction
speed
KPH
gust
KPH
rain 1hr
cm
rain 24hr
cm
rain mn
cm
humidity
%
barometer
mb
20260906163539 23 72 4.8 11.3 0.00 0.03 0.03 72 1019.6
20260906163037 23 104 3.2 9.7 0.00 0.03 0.03 75 1019.6
20260906162535 23 98 3.2 9.7 0.00 0.03 0.03 75 1019.6
20260906162033 22 117 1.6 11.3 0.00 0.03 0.03 78 1019.6
20260906161533 22 61 4.8 11.3 0.00 0.03 0.03 80 1019.6
20260906161032 22 88 4.8 11.3 0.00 0.03 0.03 78 1019.6
20260906160531 22 100 3.2 11.3 0.00 0.03 0.03 79 1019.5
20260906160031 22 65 4.8 11.3 0.00 0.03 0.03 79 1019.5
20260906155531 22 96 3.2 11.3 0.00 0.03 0.03 79 1019.6
20260906155032 22 84 4.8 14.5 0.00 0.03 0.03 81 1019.5
20260906154531 22 72 6.4 14.5 0.00 0.03 0.03 79 1019.5
20260906154030 22 85 6.4 12.9 0.00 0.03 0.03 81 1019.5
20260906153529 22 72 1.6 11.3 0.00 0.03 0.03 82 1019.5
20260906153027 21 93 4.8 12.9 0.00 0.03 0.03 82 1019.6
20260906152526 21 61 6.4 12.9 0.00 0.03 0.03 81 1019.5
20260906152029 21 93 6.4 11.3 0.00 0.03 0.03 82 1019.5
20260906151531 21 77 4.8 9.7 0.00 0.03 0.03 83 1019.5
20260906151025 21 92 4.8 12.9 0.00 0.03 0.03 83 1019.5
20260906150525 21 58 6.4 11.3 0.00 0.03 0.03 81 1019.6
20260906150025 21 115 3.2 11.3 0.00 0.03 0.03 83 1019.7
20260906145522 21 143 3.2 11.3 0.00 0.03 0.03 84 1019.6
20260906145022 21 61 8.0 14.5 0.00 0.03 0.03 84 1019.4
20260906144521 21 68 3.2 14.5 0.00 0.03 0.03 85 1019.4
20260906144020 20 75 6.4 11.3 0.00 0.03 0.03 85 1019.3
20260906143521 20 86 1.6 11.3 0.00 0.03 0.03 87 1019.3
20260906143018 20 131 3.2 11.3 0.00 0.03 0.03 88 1019.3
20260906142518 20 86 4.8 9.7 0.00 0.03 0.03 88 1019.3
20260906142017 20 64 1.6 8.0 0.00 0.03 0.03 90 1019.3
20260906141521 20 91 3.2 6.4 0.00 0.03 0.03 91 1019.4
20260906141013 19 77 3.2 6.4 0.00 0.03 0.03 91 1019.5
20260906140513 19 85 1.6 8.0 0.00 0.03 0.03 91 1019.5
20260906140024 19 98 0.0 6.4 0.00 0.03 0.03 92 1019.5
20260906135515 19 84 1.6 6.4 0.00 0.03 0.03 93 1019.5
20260906135011 18 68 1.6 4.8 0.00 0.03 0.03 94 1019.6
20260906134510 18 60 1.6 8.0 0.00 0.03 0.03 94 1019.7
20260906134007 18 60 3.2 8.0 0.00 0.03 0.03 94 1019.6
20260906133506 18 72 3.2 9.7 0.00 0.03 0.03 95 1019.6
20260906133005 17 52 4.8 9.7 0.00 0.03 0.03 95 1019.5
20260906132503 17 45 1.6 8.0 0.00 0.03 0.03 96 1019.4
20260906132004 17 70 3.2 8.0 0.00 0.03 0.03 97 1019.4
20260906131502 17 58 1.6 4.8 0.00 0.03 0.03 98 1019.4
20260906131100 17 20 0.0 4.8 0.00 0.03 0.03 97 1019.4
20260906130559 16 68 1.6 4.8 0.00 0.03 0.03 97 1019.3
20260906130107 16 32 1.6 6.4 0.00 0.03 0.03 97 1019.3
20260906125602 16 38 1.6 6.4 0.00 0.03 0.03 97 1019.1
20260906125058 16 35 1.6 6.4 0.00 0.03 0.03 98 1019.2
20260906124556 16 19 1.6 6.4 0.00 0.03 0.03 98 1019.2
20260906124059 15 87 1.6 6.4 0.00 0.03 0.03 97 1019.0
20260906123558 15 65 1.6 6.4 0.00 0.03 0.03 97 1018.9
20260906123055 15 16 1.6 4.8 0.00 0.03 0.03 98 1018.9
20260906122555 15 34 1.6 4.8 0.00 0.03 0.03 98 1018.9
20260906122054 15 21 3.2 6.4 0.00 0.03 0.03 98 1018.9
20260906121557 15 355 3.2 6.4 0.00 0.03 0.03 98 1018.8
20260906121054 15 36 3.2 8.0 0.00 0.03 0.03 98 1018.8
20260906120552 15 21 3.2 9.7 0.00 0.03 0.03 98 1018.7
20260906120052 15 35 4.8 9.7 0.00 0.03 0.03 98 1018.7
20260906115552 14 48 4.8 8.0 0.00 0.03 0.03 98 1018.7
20260906115050 14 11 3.2 6.4 0.00 0.03 0.03 98 1018.6
20260906114558 14 26 4.8 6.4 0.00 0.03 0.03 98 1018.5
20260906114049 14 20 4.8 6.4 0.00 0.03 0.03 98 1018.5
20260906113548 14 34 3.2 6.4 0.00 0.03 0.03 98 1018.4
20260906113055 13 24 3.2 4.8 0.00 0.03 0.03 98 1018.4
20260906112547 14 27 1.6 6.4 0.00 0.03 0.03 97 1018.3
20260906112050 14 16 3.2 6.4 0.00 0.03 0.03 98 1018.2
20260906111547 14 40 4.8 8.0 0.00 0.03 0.03 97 1018.1
20260906111047 14 13 3.2 8.0 0.03 0.03 0.03 97 1018.1
20260906110547 13 15 3.2 6.4 0.03 0.03 0.03 97 1018.0
20260906110045 14 22 3.2 8.0 0.03 0.03 0.03 97 1018.0
20260906105546 14 20 4.8 8.0 0.03 0.03 0.03 97 1017.8
20260906105044 14 18 3.2 6.4 0.03 0.03 0.03 97 1017.9
20260906104545 14 14 3.2 6.4 0.03 0.03 0.03 97 1017.9
20260906104046 14 23 3.2 6.4 0.03 0.03 0.03 97 1017.8
20260906103543 14 23 3.2 6.4 0.03 0.03 0.03 97 1017.8
20260906103044 14 15 3.2 6.4 0.03 0.03 0.03 97 1017.9
20260906102544 14 44 3.2 8.0 0.03 0.03 0.03 97 1017.8
20260906102044 14 23 3.2 9.7 0.03 0.03 0.03 97 1017.9
20260906101543 14 21 4.8 9.7 0.03 0.03 0.03 97 1017.9
20260906101047 14 32 3.2 6.4 0.00 0.00 0.00 97 1018.0
20260906100542 14 27 1.6 6.4 0.00 0.00 0.00 97 1018.1
20260906100042 14 2 3.2 6.4 0.00 0.00 0.00 97 1018.0
20260906095542 14 23 3.2 6.4 0.00 0.00 0.00 97 1017.9
20260906095043 14 21 1.6 3.2 0.00 0.00 0.00 97 1018.1
20260906094541 14 25 0.0 1.6 0.00 0.00 0.00 97 1018.3
20260906094040 14 25 0.0 3.2 0.00 0.00 0.00 97 1018.1
20260906093539 14 25 0.0 3.2 0.00 0.00 0.00 97 1018.0
20260906093038 14 25 0.0 3.2 0.00 0.00 0.00 97 1017.9
20260906092543 14 25 0.0 3.2 0.00 0.00 0.00 97 1017.9
20260906092037 14 25 0.0 3.2 0.00 0.00 0.00 97 1017.8
20260906091537 15 25 1.6 4.8 0.00 0.00 0.00 97 1017.8
20260906091037 15 25 1.6 4.8 0.00 0.00 0.00 97 1017.6
20260906090535 14 24 1.6 3.2 0.00 0.00 0.00 97 1017.6
20260906090034 15 24 1.6 4.8 0.00 0.00 0.00 97 1017.6
20260906085535 15 24 1.6 4.8 0.00 0.00 0.00 97 1017.6
20260906085034 15 27 1.6 4.8 0.00 0.00 0.00 97 1017.7
20260906084534 15 27 1.6 4.8 0.00 0.00 0.00 97 1017.7
20260906084037 15 27 0.0 3.2 0.00 0.00 0.00 97 1017.8
20260906083533 15 27 1.6 3.2 0.00 0.00 0.00 97 1017.7
20260906083033 15 27 0.0 3.2 0.00 0.00 0.00 97 1017.8
20260906082532 15 27 0.0 3.2 0.00 0.00 0.00 97 1017.7
20260906082033 15 27 0.0 1.6 0.00 0.00 0.00 97 1017.6
20260906081542 15 27 0.0 3.2 0.00 0.00 0.00 97 1017.6
20260906081031 15 27 0.0 3.2 0.00 0.00 0.00 97 1017.7
20260906080532 15 27 0.0 1.6 0.00 0.00 0.00 97 1017.6
20260906080032 15 27 0.0 3.2 0.00 0.00 0.00 97 1017.6
20260906075533 15 27 1.6 3.2 0.00 0.00 0.00 97 1017.5
20260906075031 15 27 0.0 1.6 0.00 0.00 0.00 97 1017.5
20260906074530 15 27 0.0 1.6 0.00 0.00 0.00 97 1017.5
20260906074029 15 27 0.0 1.6 0.00 0.00 0.00 97 1017.7
20260906073529 15 27 0.0 1.6 0.00 0.00 0.00 97 1017.8
20260906073028 15 27 0.0 1.6 0.00 0.00 0.00 97 1017.8
20260906072528 15 27 0.0 3.2 0.00 0.00 0.00 97 1017.7
20260906072028 15 27 0.0 3.2 0.00 0.00 0.00 97 1017.7
20260906071526 15 27 0.0 3.2 0.00 0.00 0.00 97 1017.7
20260906071029 15 29 1.6 4.8 0.00 0.00 0.00 97 1017.6
20260906070525 15 14 1.6 4.8 0.00 0.00 0.00 97 1017.6
20260906070025 15 80 1.6 3.2 0.00 0.00 0.00 97 1017.6
20260906065525 15 80 0.0 3.2 0.00 0.00 0.00 97 1017.6
20260906065025 15 80 0.0 1.6 0.00 0.00 0.00 97 1017.5
20260906064524 15 80 0.0 1.6 0.00 0.00 0.00 97 1017.6
20260906064024 15 80 0.0 1.6 0.00 0.00 0.00 97 1017.6
20260906063525 15 80 0.0 1.6 0.00 0.00 0.00 97 1017.5
20260906063023 15 80 0.0 3.2 0.00 0.00 0.00 97 1017.5
20260906062522 15 80 0.0 3.2 0.00 0.00 0.00 97 1017.5
20260906062023 15 80 0.0 1.6 0.00 0.00 0.00 97 1017.5
20260906061521 16 80 0.0 0.0 0.00 0.00 0.00 97 1017.3
20260906061020 16 80 0.0 1.6 0.00 0.00 0.00 97 1017.4
20260906060520 16 80 0.0 0.0 0.00 0.00 0.00 97 1017.4
20260906060026 16 80 0.0 0.0 0.00 0.00 0.00 97 1017.3
20260906055518 16 80 0.0 0.0 0.00 0.00 0.00 97 1017.2
20260906055018 16 80 0.0 1.6 0.00 0.00 0.00 96 1017.2
20260906054517 16 80 0.0 1.6 0.00 0.00 0.00 96 1017.2
20260906054016 16 80 0.0 1.6 0.00 0.00 0.00 96 1017.1
20260906053516 16 80 0.0 1.6 0.00 0.00 0.00 96 1017.2
20260906053021 16 80 0.0 1.6 0.00 0.00 0.00 96 1017.2
20260906052515 16 80 0.0 1.6 0.00 0.00 0.00 96 1017.2
20260906052015 16 80 0.0 1.6 0.00 0.00 0.00 96 1017.1
20260906051516 16 80 0.0 1.6 0.00 0.00 0.00 96 1017.0
20260906051013 16 80 0.0 1.6 0.00 0.00 0.00 96 1017.0
20260906050513 16 80 0.0 1.6 0.00 0.00 0.00 96 1016.9
20260906050028 16 80 0.0 1.6 0.00 0.00 0.00 95 1017.0
20260906045510 16 80 0.0 1.6 0.00 0.00 0.00 95 1016.8
20260906045009 16 80 0.0 1.6 0.00 0.00 0.00 95 1016.6
20260906044512 16 80 0.0 1.6 0.00 0.00 0.00 95 1016.6
20260906044011 16 80 0.0 1.6 0.00 0.00 0.00 95 1016.6
20260906043506 17 80 0.0 1.6 0.00 0.00 0.00 95 1016.7
20260906043006 17 80 0.0 1.6 0.00 0.00 0.00 94 1016.7
20260906042507 17 80 0.0 1.6 0.00 0.00 0.00 94 1016.6
20260906042004 17 80 0.0 1.6 0.00 0.00 0.00 94 1016.6
20260906041505 17 80 0.0 1.6 0.00 0.00 0.00 94 1016.4
20260906041004 17 80 1.6 1.6 0.00 0.00 0.00 94 1016.4
20260906040503 17 80 0.0 1.6 0.00 0.00 0.00 94 1016.4
20260906040004 17 80 0.0 1.6 0.00 0.00 0.00 94 1016.4
20260906035502 17 80 0.0 1.6 0.00 0.00 0.00 94 1016.5
20260906035002 17 80 0.0 1.6 0.00 0.00 0.00 94 1016.5
20260906034502 17 80 0.0 1.6 0.00 0.00 0.00 94 1016.5
20260906034002 17 80 0.0 1.6 0.00 0.00 0.00 93 1016.4
20260906033502 17 80 0.0 1.6 0.00 0.00 0.00 93 1016.3
20260906033100 17 80 0.0 1.6 0.00 0.00 0.00 93 1016.3
20260906032559 17 80 0.0 1.6 0.00 0.00 0.00 92 1016.3
20260906032059 17 80 0.0 1.6 0.00 0.00 0.00 92 1016.4
20260906031604 17 80 0.0 1.6 0.00 0.00 0.00 92 1016.3
20260906031058 17 80 0.0 1.6 0.00 0.00 0.00 92 1016.3
20260906030557 17 80 0.0 1.6 0.00 0.00 0.00 92 1016.4
20260906030057 18 80 0.0 3.2 0.00 0.00 0.00 91 1016.3
20260906025555 18 80 0.0 4.8 0.00 0.00 0.00 91 1016.3
20260906025055 18 81 1.6 4.8 0.00 0.00 0.00 91 1016.2
20260906024555 18 76 0.0 3.2 0.00 0.00 0.00 91 1016.3
20260906024054 18 76 1.6 4.8 0.00 0.00 0.00 90 1016.2
20260906023554 18 76 1.6 4.8 0.00 0.00 0.00 90 1016.2
20260906023054 18 76 1.6 4.8 0.00 0.00 0.00 90 1016.2
20260906022553 18 76 1.6 4.8 0.00 0.00 0.00 89 1016.2
20260906022054 18 76 1.6 4.8 0.00 0.00 0.00 89 1016.2
20260906021551 18 76 1.6 4.8 0.00 0.00 0.00 88 1016.1
20260906021050 18 77 1.6 6.4 0.00 0.00 0.00 88 1016.2
20260906020549 18 75 3.2 6.4 0.00 0.00 0.00 88 1016.0
20260906020057 18 70 3.2 6.4 0.00 0.00 0.00 88 1016.1
20260906015548 18 94 3.2 6.4 0.00 0.00 0.00 87 1016.0
20260906015048 18 75 3.2 6.4 0.00 0.00 0.00 87 1016.0
20260906014551 18 80 3.2 8.0 0.00 0.00 0.00 87 1016.0
20260906014047 19 77 3.2 8.0 0.00 0.00 0.00 87 1015.9
20260906013547 19 73 1.6 6.4 0.00 0.00 0.00 87 1015.9
20260906013047 19 79 1.6 6.4 0.00 0.00 0.00 86 1015.8
20260906012547 19 80 1.6 6.4 0.00 0.00 0.00 86 1015.7
20260906012047 19 74 1.6 4.8 0.00 0.00 0.00 86 1015.6
20260906011550 19 68 3.2 4.8 0.00 0.00 0.00 86 1015.6
20260906011046 19 88 1.6 4.8 0.00 0.00 0.00 86 1015.6
20260906010547 19 86 1.6 4.8 0.00 0.00 0.00 86 1015.6
20260906010046 20 84 0.0 6.4 0.00 0.00 0.00 86 1015.6
20260906005545 20 84 1.6 6.4 0.00 0.00 0.00 85 1015.6
20260906005047 20 58 1.6 4.8 0.00 0.00 0.00 86 1015.5
20260906004545 20 70 0.0 4.8 0.00 0.00 0.00 86 1015.5
20260906004044 20 70 0.0 3.2 0.00 0.00 0.00 86 1015.5
20260906003544 20 70 0.0 3.2 0.00 0.00 0.00 85 1015.5
20260906003045 20 70 0.0 3.2 0.00 0.00 0.00 85 1015.6
20260906002545 20 70 0.0 4.8 0.00 0.00 0.00 84 1015.6
20260906002044 21 70 1.6 4.8 0.00 0.00 0.00 84 1015.6
20260906001544 21 70 1.6 8.0 0.00 0.00 0.00 84 1015.6
20260906001043 21 75 1.6 8.0 0.00 0.00 0.00 84 1015.5
20260906000543 21 65 3.2 6.4 0.00 0.00 0.00 84 1015.4
20260906000043 21 81 3.2 4.8 0.00 0.00 0.00 85 1015.4
20260905235543 21 69 1.6 3.2 0.00 0.00 0.00 85 1015.6
20260905235043 21 59 1.6 6.4 0.00 0.00 0.00 85 1015.5
20260905234543 21 71 3.2 8.0 0.00 0.00 0.00 84 1015.5
20260905234042 22 86 3.2 8.0 0.00 0.00 0.00 84 1015.4
20260905233542 22 34 3.2 9.7 0.00 0.00 0.00 84 1015.5
20260905233044 22 72 3.2 9.7 0.00 0.00 0.00 84 1015.5
20260905232542 22 84 4.8 9.7 0.00 0.00 0.00 83 1015.5
20260905232041 22 82 3.2 8.0 0.00 0.00 0.00 84 1015.5
20260905231542 22 61 3.2 8.0 0.00 0.00 0.00 83 1015.6
20260905231040 22 88 1.6 12.9 0.00 0.00 0.00 85 1015.6
20260905230540 22 29 3.2 12.9 0.00 0.00 0.00 84 1015.6
20260905230048 22 349 3.2 9.7 0.00 0.00 0.00 83 1015.7
20260905225540 22 8 1.6 6.4 0.00 0.00 0.00 83 1015.7
20260905225040 22 65 1.6 9.7 0.00 0.00 0.00 83 1015.6
20260905224557 22 70 4.8 9.7 0.00 0.00 0.00 84 1015.6
20260905224040 22 39 3.2 11.3 0.00 0.00 0.00 84 1015.6
20260905223539 22 47 3.2 14.5 0.00 0.00 0.00 84 1015.4
20260905223039 23 8 8.0 14.5 0.00 0.00 0.00 83 1015.3
20260905222539 23 36 4.8 12.9 0.00 0.00 0.00 84 1015.2
20260905222038 23 18 6.4 12.9 0.00 0.00 0.00 83 1015.1
20260905221549 23 36 4.8 17.7 0.00 0.00 0.00 83 1015.0
20260905221037 23 13 6.4 17.7 0.00 0.00 0.00 83 1015.0
20260905220536 23 16 6.4 14.5 0.00 0.00 0.00 84 1015.1
20260905220040 23 29 6.4 11.3 0.00 0.00 0.00 84 1015.1
20260905215535 23 348 3.2 12.9 0.00 0.00 0.00 85 1015.1
20260905215033 23 20 6.4 12.9 0.00 0.00 0.00 84 1015.1
20260905214532 22 354 6.4 12.9 0.00 0.00 0.00 85 1015.2
20260905214031 22 34 3.2 9.7 0.00 0.00 0.00 86 1015.2
20260905213533 22 12 4.8 9.7 0.00 0.00 0.00 87 1015.3
20260905213029 22 26 1.6 6.4 0.00 0.00 0.00 88 1015.3
20260905212532 22 31 3.2 6.4 0.00 0.00 0.00 88 1015.3
20260905212029 22 20 0.0 4.8 0.00 0.00 0.00 89 1015.4
20260905211528 22 17 0.0 4.8 0.00 0.00 0.00 89 1015.4
20260905211028 22 12 0.0 3.2 0.00 0.00 0.00 88 1015.4
20260905210529 22 352 0.0 3.2 0.00 0.00 0.00 88 1015.5
20260905210029 22 350 0.0 4.8 0.00 0.00 0.00 87 1015.5
20260905205528 22 346 0.0 4.8 0.00 0.00 0.00 88 1015.5
20260905205028 22 20 1.6 3.2 0.00 0.00 0.00 88 1015.6
20260905204528 22 34 0.0 6.4 0.00 0.00 0.00 88 1015.5
20260905204029 22 1 1.6 9.7 0.00 0.00 0.00 87 1015.6
20260905203527 22 40 3.2 9.7 0.00 0.00 0.00 85 1015.6
20260905203036 22 1 3.2 8.0 0.00 0.00 0.00 85 1015.6
20260905202529 22 52 1.6 8.0 0.00 0.00 0.00 85 1015.6
20260905202027 22 20 3.2 8.0 0.00 0.00 0.00 85 1015.5
20260905201527 22 44 3.2 11.3 0.00 0.00 0.00 84 1015.5
20260905201026 22 79 3.2 11.3 0.00 0.00 0.00 86 1015.5
20260905200528 22 337 4.8 9.7 0.00 0.00 0.00 85 1015.5
20260905200026 22 27 3.2 11.3 0.00 0.00 0.00 86 1015.5
20260905195524 22 17 6.4 11.3 0.00 0.00 0.00 86 1015.6
20260905195027 22 30 1.6 9.7 0.00 0.00 0.00 87 1015.5
20260905194525 22 25 4.8 12.9 0.00 0.00 0.00 86 1015.5
20260905194028 22 32 4.8 14.5 0.00 0.00 0.00 86 1015.5
20260905193525 22 324 6.4 14.5 0.00 0.00 0.00 87 1015.5
20260905193027 22 56 6.4 14.5 0.00 0.00 0.00 86 1015.5
20260905192524 22 38 3.2 12.9 0.00 0.00 0.00 86 1015.4
20260905192024 22 30 6.4 14.5 0.00 0.00 0.00 86 1015.4
20260905191524 22 47 4.8 14.5 0.00 0.00 0.00 86 1015.4
20260905191023 22 7 3.2 14.5 0.00 0.00 0.00 86 1015.4
20260905190523 22 29 3.2 12.9 0.00 0.00 0.00 88 1015.5
20260905190021 22 33 8.0 12.9 0.00 0.00 0.00 87 1015.5
20260905185521 22 43 4.8 16.1 0.00 0.00 0.00 87 1015.4
20260905185019 22 28 8.0 16.1 0.00 0.00 0.00 88 1015.4
20260905184518 22 37 8.0 16.1 0.00 0.00 0.00 88 1015.5
20260905184017 21 34 6.4 12.9 0.00 0.00 0.00 90 1015.4
20260905183516 21 25 4.8 12.9 0.00 0.00 0.00 91 1015.5
20260905183017 21 44 4.8 11.3 0.00 0.00 0.00 91 1015.6
20260905182513 21 28 4.8 11.3 0.00 0.00 0.00 91 1015.6
20260905182013 21 69 6.4 11.3 0.00 0.00 0.00 91 1015.7
20260905181513 21 334 6.4 12.9 0.00 0.00 0.00 91 1015.8
20260905181013 21 59 3.2 12.9 0.00 0.00 0.00 92 1015.8
20260905180513 21 30 4.8 12.9 0.00 0.00 0.00 92 1015.8
20260905180011 21 34 6.4 11.3 0.00 0.00 0.00 92 1015.7
20260905175512 21 348 6.4 14.5 0.00 0.00 0.00 92 1015.7
20260905175012 20 5 6.4 12.9 0.00 0.00 0.00 92 1015.7
20260905174511 20 30 3.2 11.3 0.00 0.00 0.00 93 1015.7
20260905174015 20 26 4.8 11.3 0.00 0.00 0.00 92 1015.6
20260905173511 21 28 3.2 8.0 0.00 0.00 0.00 92 1015.6
20260905173015 21 32 0.0 6.4 0.00 0.00 0.00 93 1015.6
20260905172511 20 32 1.6 9.7 0.00 0.00 0.00 93 1015.6
20260905172011 20 23 3.2 11.3 0.00 0.00 0.00 93 1015.6
20260905171518 20 18 3.2 11.3 0.00 0.00 0.00 93 1015.6
20260905171010 20 19 4.8 9.7 0.00 0.00 0.00 93 1015.7
20260905170510 20 34 1.6 8.0 0.00 0.00 0.00 93 1015.7
20260905170011 20 345 1.6 12.9 0.00 0.00 0.00 93 1015.7
20260905165511 20 331 6.4 12.9 0.00 0.00 0.00 93 1015.8
20260905165013 20 36 1.6 6.4 0.00 0.00 0.00 93 1015.8
20260905164509 20 354 1.6 3.2 0.00 0.00 0.00 93 1015.9
20260905164009 20 359 0.0 4.8 0.00 0.00 0.00 93 1015.9